| time (UTC) | temp F | wind direction | speed knots | gust knots | rain 1hr in | rain 24hr in | rain mn in | humidity % | barometer mb |
| 20260505121020 | 55 | 0.0 | 0.0 | 0.00 | 1.97 | 0.49 | 73 | ||
| 20260505120053 | 53 | 0.0 | 0.0 | 0.00 | 1.97 | 0.49 | 75 | ||
| 20260505115508 | 52 | 0.0 | 0.0 | 0.00 | 1.97 | 0.49 | 76 | ||
| 20260505114024 | 50 | 0.0 | 0.0 | 0.00 | 1.97 | 0.49 | 75 | ||
| 20260505113057 | 50 | 0.0 | 0.0 | 0.00 | 1.97 | 0.49 | 76 | ||
| 20260505112407 | 50 | 0.0 | 0.0 | 0.00 | 1.97 | 0.49 | 76 | ||
| 20260505111440 | 50 | 0.0 | 0.0 | 0.00 | 1.97 | 0.49 | 75 | ||
| 20260505102200 | 50 | 0.0 | 0.0 | 0.10 | 1.97 | 0.49 | 72 | ||
| 20260505101037 | 51 | 0.0 | 0.0 | 0.10 | 1.97 | 0.49 | 72 | ||
| 20260505100728 | 51 | 0.0 | 0.0 | 0.10 | 1.97 | 0.49 | 72 | ||
| 20260505095627 | 51 | 83 | 0.9 | 0.9 | 0.20 | 1.97 | 0.49 | 72 | |
| 20260505094042 | 51 | 81 | 0.9 | 0.9 | 0.20 | 1.97 | 0.49 | 71 | |
| 20260505093218 | 52 | 0.0 | 0.0 | 0.10 | 1.87 | 0.39 | 69 | ||
| 20260505091602 | 52 | 0.0 | 0.0 | 0.10 | 1.97 | 0.39 | 67 | ||
| 20260505090809 | 53 | 0.0 | 0.0 | 0.10 | 1.97 | 0.39 | 67 | ||
| 20260505085707 | 53 | 0.0 | 0.0 | 0.10 | 1.97 | 0.39 | 66 | ||
| 20260505084812 | 53 | 0.0 | 0.0 | 0.00 | 1.87 | 0.30 | 64 | ||
| 20260505083916 | 54 | 0.0 | 0.0 | 0.00 | 1.87 | 0.30 | 64 | ||
| 20260505082712 | 54 | 0.0 | 0.0 | 0.00 | 1.87 | 0.30 | 63 | ||
| 20260505081848 | 0 | 0.0 | 0.0 | 0.00 | 1.87 | 0.30 | |||
| 20260505080747 | 0 | 0.0 | 0.0 | 0.00 | 1.87 | 0.30 | |||
| 20260505075646 | 0 | 0.0 | 0.0 | 0.00 | 1.97 | 0.30 | |||
| 20260505075130 | 55 | 0.0 | 0.0 | 0.10 | 1.97 | 0.30 | 59 | ||
| 20260505073307 | 57 | 0.0 | 0.0 | 0.10 | 1.97 | 0.30 | 57 | ||
| 20260505072258 | 58 | 103 | 0.0 | 0.9 | 0.10 | 1.97 | 0.30 | 55 | |
| 20260505071104 | 59 | 0.0 | 0.0 | 0.10 | 1.97 | 0.30 | 54 | ||
| 20260505070210 | 59 | 0.0 | 0.0 | 0.10 | 1.97 | 0.30 | 54 | ||
| 20260505065345 | 61 | 288 | 0.9 | 1.7 | 0.20 | 1.97 | 0.30 | 53 | |
| 20260505064037 | 61 | 262 | 0.9 | 1.7 | 0.10 | 1.87 | 0.20 | 52 | |
| 20260505063317 | 62 | 242 | 0.9 | 1.7 | 0.10 | 1.87 | 0.20 | 52 | |
| 20260505062410 | 62 | 243 | 1.7 | 1.7 | 0.10 | 2.07 | 0.20 | 52 | |
| 20260505061102 | 62 | 255 | 1.7 | 2.6 | 0.10 | 2.07 | 0.20 | 52 | |
| 20260505060115 | 62 | 248 | 1.7 | 2.6 | 0.10 | 2.17 | 0.20 | 52 | |
| 20260505055322 | 62 | 263 | 1.7 | 1.7 | 0.10 | 2.07 | 0.10 | 51 | |
| 20260505054047 | 63 | 282 | 1.7 | 1.7 | 0.10 | 2.07 | 0.10 | 50 | |
| 20260505053048 | 0 | 0.0 | 0.0 | 0.10 | 2.07 | 0.10 | |||
| 20260505052050 | 63 | 283 | 1.7 | 2.6 | 0.10 | 2.07 | 0.10 | 50 | |
| 20260505051021 | 63 | 247 | 1.7 | 2.6 | 0.10 | 2.07 | 0.10 | 50 | |
| 20260505050124 | 63 | 257 | 1.7 | 2.6 | 0.10 | 2.07 | 0.10 | 50 | |
| 20260505041029 | 63 | 239 | 1.7 | 1.7 | 0.10 | 1.97 | 0.00 | 48 | |
| 20260505040030 | 64 | 265 | 0.9 | 1.7 | 0.20 | 1.97 | 0.00 | 48 | |
| 20260505035032 | 64 | 253 | 0.9 | 1.7 | 0.10 | 1.87 | 1.87 | 47 | |
| 20260505034034 | 64 | 179 | 0.9 | 1.7 | 0.10 | 1.87 | 1.87 | 47 | |
| 20260505033436 | 64 | 254 | 0.9 | 1.7 | 0.10 | 1.87 | 1.87 | 46 | |
| 20260505032057 | 65 | 263 | 0.9 | 1.7 | 0.10 | 1.87 | 1.87 | 45 | |
| 20260505031141 | 65 | 184 | 0.0 | 0.9 | 0.20 | 1.87 | 1.87 | 44 | |
| 20260505030059 | 65 | 253 | 0.0 | 0.9 | 0.10 | 1.77 | 1.77 | 43 | |
| 20260505025112 | 66 | 255 | 0.0 | 0.9 | 0.10 | 1.77 | 1.77 | 43 | |
| 20260505024146 | 67 | 231 | 0.9 | 0.9 | 0.10 | 1.77 | 1.77 | 42 | |
| 20260505023209 | 67 | 251 | 2.6 | 4.3 | 0.10 | 1.77 | 1.77 | 42 | |
| 20260505022046 | 67 | 253 | 3.5 | 5.2 | 0.10 | 1.77 | 1.77 | 42 | |
| 20260505021047 | 68 | 266 | 1.7 | 3.5 | 0.00 | 1.77 | 1.67 | 42 | |
| 20260505020050 | 68 | 267 | 3.5 | 5.2 | 0.00 | 1.77 | 1.67 | 43 | |
| 20260505015050 | 67 | 227 | 1.7 | 1.7 | 0.00 | 1.77 | 1.67 | 44 | |
| 20260505014124 | 68 | 267 | 2.6 | 4.3 | 0.00 | 1.77 | 1.67 | 45 | |
| 20260505013042 | 67 | 258 | 1.7 | 4.3 | 0.00 | 1.77 | 1.67 | 45 | |
| 20260505012126 | 67 | 220 | 0.9 | 0.9 | 0.00 | 1.77 | 1.67 | 44 | |
| 20260505011128 | 68 | 252 | 0.9 | 1.7 | 0.00 | 1.77 | 1.67 | 43 | |
| 20260505010510 | 68 | 269 | 0.9 | 2.6 | 0.00 | 1.77 | 1.67 | 41 | |
| 20260505005048 | 69 | 270 | 0.9 | 0.9 | 0.00 | 1.77 | 1.67 | 40 | |
| 20260505004246 | 69 | 174 | 0.9 | 1.7 | 0.00 | 1.87 | 1.67 | 40 | |
| 20260505003141 | 70 | 266 | 1.7 | 2.6 | 0.10 | 1.87 | 1.67 | 39 | |
| 20260505002310 | 71 | 232 | 2.6 | 2.6 | 0.20 | 1.87 | 1.67 | 37 | |
| 20260505001343 | 71 | 254 | 0.9 | 1.7 | 0.20 | 1.87 | 1.67 | 37 | |
| 20260505000241 | 72 | 268 | 2.6 | 3.5 | 0.20 | 1.97 | 1.67 | 37 | |
| 20260504235140 | 72 | 262 | 2.6 | 4.3 | 0.49 | 1.97 | 1.67 | 36 | |
| 20260504234110 | 73 | 224 | 2.6 | 4.3 | 0.59 | 1.97 | 1.67 | 36 | |
| 20260504233041 | 73 | 234 | 1.7 | 1.7 | 0.59 | 1.87 | 1.57 | 35 | |
| 20260504232113 | 73 | 239 | 2.6 | 3.5 | 0.49 | 1.77 | 1.48 | 34 | |
| 20260504231103 | 74 | 252 | 1.7 | 2.6 | 0.59 | 1.77 | 1.48 | 33 | |
| 20260504230105 | 74 | 257 | 2.6 | 4.3 | 0.59 | 1.77 | 1.48 | 32 | |
| 20260504225046 | 74 | 276 | 1.7 | 4.3 | 0.30 | 1.57 | 1.18 | 32 | |
| 20260504224151 | 74 | 277 | 2.6 | 3.5 | 0.20 | 1.57 | 1.08 | 31 | |
| 20260504223223 | 75 | 256 | 1.7 | 2.6 | 0.10 | 1.48 | 0.98 | 30 | |
| 20260504222019 | 75 | 213 | 4.3 | 6.1 | 0.10 | 1.57 | 0.98 | 29 | |
| 20260504221021 | 76 | 211 | 3.5 | 5.2 | 0.00 | 1.48 | 0.89 | 28 | |
| 20260504220022 | 77 | 231 | 2.6 | 4.3 | 0.20 | 1.48 | 0.89 | 26 | |
| 20260504215023 | 78 | 215 | 2.6 | 4.3 | 0.20 | 1.48 | 0.89 | 25 | |
| 20260504214027 | 79 | 247 | 2.6 | 3.5 | 0.20 | 1.48 | 0.89 | 24 | |
| 20260504213135 | 79 | 265 | 3.5 | 6.1 | 0.20 | 1.48 | 0.89 | 24 | |
| 20260504212029 | 81 | 245 | 2.6 | 4.3 | 0.20 | 1.48 | 0.89 | 24 | |
| 20260504211031 | 80 | 221 | 2.6 | 4.3 | 0.20 | 1.48 | 0.89 | 24 | |
| 20260504210032 | 80 | 236 | 3.5 | 5.2 | 0.00 | 1.28 | 0.69 | 25 | |
| 20260504205033 | 80 | 217 | 3.5 | 5.2 | 0.00 | 1.28 | 0.69 | 25 | |
| 20260504204055 | 80 | 282 | 3.5 | 7.0 | 0.00 | 1.28 | 0.69 | 25 | |
| 20260504203107 | 81 | 238 | 2.6 | 4.3 | 0.00 | 1.28 | 0.69 | 25 | |
| 20260504202129 | 80 | 243 | 3.5 | 5.2 | 0.00 | 1.28 | 0.69 | 26 | |
| 20260504201039 | 79 | 206 | 3.5 | 5.2 | 0.10 | 1.28 | 0.69 | 26 | |
| 20260504200111 | 79 | 299 | 2.6 | 3.5 | 0.10 | 1.28 | 0.69 | 27 | |
| 20260504195113 | 79 | 240 | 2.6 | 3.5 | 0.10 | 1.28 | 0.69 | 27 | |
| 20260504194043 | 79 | 165 | 3.5 | 4.3 | 0.10 | 1.28 | 0.69 | 27 | |
| 20260504193045 | 79 | 197 | 3.5 | 4.3 | 0.10 | 1.28 | 0.69 | 27 | |
| 20260504192046 | 78 | 132 | 1.7 | 3.5 | 0.10 | 1.28 | 0.69 | 27 | |
| 20260504191048 | 78 | 248 | 2.6 | 3.5 | 0.00 | 1.18 | 0.59 | 28 | |
| 20260504190050 | 79 | 234 | 2.6 | 4.3 | 0.00 | 1.18 | 0.59 | 28 | |
| 20260504185021 | 78 | 259 | 3.5 | 5.2 | 0.00 | 1.18 | 0.59 | 28 | |
| 20260504184021 | 77 | 264 | 4.3 | 5.2 | 0.00 | 1.18 | 0.59 | 28 | |
| 20260504183022 | 76 | 276 | 3.5 | 5.2 | 0.00 | 1.18 | 0.59 | 29 | |
| 20260504182104 | 76 | 213 | 4.3 | 5.2 | 0.00 | 1.18 | 0.59 | 29 | |
| 20260504181129 | 75 | 257 | 3.5 | 5.2 | 0.00 | 1.28 | 0.59 | 30 | |
| 20260504180030 | 75 | 264 | 3.5 | 4.3 | 0.00 | 1.28 | 0.59 | 30 | |
| 20260504175031 | 74 | 266 | 3.5 | 3.5 | 0.00 | 1.38 | 0.59 | 30 | |
| 20260504174030 | 74 | 272 | 4.3 | 4.3 | 0.00 | 1.38 | 0.59 | 30 | |
| 20260504173309 | 74 | 262 | 3.5 | 5.2 | 0.00 | 1.38 | 0.59 | 31 | |
| 20260504172033 | 74 | 208 | 3.5 | 6.1 | 0.00 | 1.38 | 0.59 | 31 | |
| 20260504171036 | 74 | 211 | 3.5 | 5.2 | 0.00 | 1.38 | 0.59 | 32 | |
| 20260504151021 | 65 | 218 | 3.5 | 6.1 | 0.00 | 1.67 | 0.59 | 38 | |
| 20260504150126 | 64 | 331 | 4.3 | 5.2 | 0.00 | 1.77 | 0.59 | 39 | |
| 20260504141102 | 60 | 246 | 1.7 | 2.6 | 0.10 | 1.87 | 0.59 | 48 | |
| 20260504140123 | 58 | 221 | 1.7 | 2.6 | 0.10 | 1.87 | 0.59 | 50 | |
| 20260504130144 | 54 | 174 | 1.7 | 2.6 | 0.00 | 1.77 | 0.49 | 63 |